DEMBR EDAY-EDMO

Flight info

Callsign DEMBR
Flight time 4h 0m
Altitude 8000
Route RENKI L619 TABOK DCT LWB DCT EVOKI DCT LODRO M736 GALMA Z94 BAMKI Z117 KEGOS N869 DKB Z818 ELVAG Y161 MAH
Aircraft C172/L-SDGY/S

Departure

Time 2026-04-12 06:09
Airport Strausberg Airfield (EDAY)

Arrival

Time 2026-04-12 10:09
Airport Oberpfaffenhofen Airport (EDMO)
Time Latitude Longitude Altitude Speed Heading
2026-04-12 05:47 52.58539 13.91772 264 ft 0 kts 337°
2026-04-12 05:59 52.58551 13.91756 264 ft 3 kts 293°
2026-04-12 05:59 52.58541 13.91695 264 ft 7 kts 246°
2026-04-12 05:59 52.58528 13.91618 264 ft 6 kts 283°
2026-04-12 06:00 52.58551 13.91567 264 ft 5 kts 283°
2026-04-12 06:00 52.58540 13.91505 264 ft 5 kts 245°
2026-04-12 06:00 52.58532 13.91475 264 ft 3 kts 246°
2026-04-12 06:00 52.58503 13.91364 264 ft 13 kts 248°
2026-04-12 06:01 52.58473 13.91252 263 ft 7 kts 233°
2026-04-12 06:01 52.58431 13.91232 262 ft 8 kts 173°
2026-04-12 06:01 52.58366 13.91247 262 ft 9 kts 172°
2026-04-12 06:01 52.58294 13.91264 262 ft 11 kts 172°
2026-04-12 06:02 52.58210 13.91283 261 ft 12 kts 172°
2026-04-12 06:02 52.58135 13.91300 260 ft 2 kts 172°
2026-04-12 06:04 52.58082 13.91312 259 ft 11 kts 172°
2026-04-12 06:04 52.58000 13.91331 257 ft 11 kts 173°
2026-04-12 06:04 52.57935 13.91345 256 ft 5 kts 161°
2026-04-12 06:04 52.57928 13.91351 255 ft 0 kts 143°
2026-04-12 06:06 52.57920 13.91361 255 ft 5 kts 143°
2026-04-12 06:06 52.57912 13.91421 255 ft 4 kts 54°
2026-04-12 06:07 52.57920 13.91435 255 ft 0 kts 49°
2026-04-12 06:07 52.57923 13.91441 255 ft 5 kts 49°
2026-04-12 06:07 52.58029 13.91642 255 ft 46 kts 50°
2026-04-12 06:08 52.58337 13.92197 329 ft 74 kts 50°
2026-04-12 06:08 52.58741 13.92789 485 ft 83 kts 46°
2026-04-12 06:08 52.59162 13.93474 634 ft 87 kts 58°
2026-04-12 06:08 52.59546 13.94270 787 ft 91 kts 59°
2026-04-12 06:09 52.59949 13.95098 936 ft 94 kts 59°
2026-04-12 06:09 52.60369 13.95935 1094 ft 97 kts 59°
2026-04-12 06:09 52.60807 13.96803 1251 ft 99 kts 59°
2026-04-12 06:09 52.61249 13.97671 1396 ft 100 kts 61°
2026-04-12 06:10 52.61877 13.98265 1556 ft 113 kts 15°
2026-04-12 06:10 52.62678 13.98319 1716 ft 117 kts
2026-04-12 06:10 52.63497 13.98278 1855 ft 119 kts
2026-04-12 06:10 52.64329 13.98220 2024 ft 120 kts 360°
2026-04-12 06:11 52.65155 13.98163 2183 ft 121 kts
2026-04-12 06:11 52.65994 13.98103 2344 ft 121 kts
2026-04-12 06:11 52.66836 13.98040 2501 ft 121 kts 360°
2026-04-12 06:11 52.67673 13.97978 2651 ft 120 kts 359°
2026-04-12 06:12 52.68507 13.97912 2807 ft 120 kts 359°
2026-04-12 06:12 52.69340 13.97847 2956 ft 120 kts 358°
2026-04-12 06:12 52.70170 13.97782 3114 ft 119 kts 358°
2026-04-12 06:12 52.70996 13.97719 3271 ft 118 kts 358°
2026-04-12 06:13 52.71813 13.97654 3423 ft 118 kts 358°
2026-04-12 06:13 52.72629 13.97591 3577 ft 117 kts 357°
2026-04-12 06:13 52.73440 13.97528 3730 ft 116 kts 357°
2026-04-12 06:13 52.74248 13.97463 3886 ft 116 kts 357°
2026-04-12 06:14 52.75056 13.97399 4040 ft 117 kts 358°
2026-04-12 06:14 52.75867 13.97335 4195 ft 117 kts 358°
2026-04-12 06:14 52.76680 13.97272 4350 ft 117 kts 358°
2026-04-12 06:14 52.77490 13.97210 4507 ft 116 kts 358°
2026-04-12 06:15 52.78290 13.97148 4659 ft 115 kts 357°
2026-04-12 06:15 52.79078 13.97086 4813 ft 114 kts 357°
2026-04-12 06:15 52.79879 13.97023 4969 ft 113 kts 357°
2026-04-12 06:15 52.80664 13.96962 5122 ft 113 kts 357°
2026-04-12 06:16 52.81444 13.96900 5278 ft 111 kts 357°
2026-04-12 06:16 52.82204 13.96841 5430 ft 110 kts 357°
2026-04-12 06:16 52.82967 13.96780 5583 ft 109 kts 356°
2026-04-12 06:16 52.83718 13.96721 5734 ft 108 kts 357°
2026-04-12 06:17 52.84470 13.96662 5888 ft 107 kts 356°
2026-04-12 06:17 52.85212 13.96603 6042 ft 107 kts 356°
2026-04-12 06:17 52.85952 13.96544 6196 ft 106 kts 356°
2026-04-12 06:17 52.86683 13.96487 6347 ft 106 kts 356°
2026-04-12 06:18 52.87417 13.96429 6499 ft 105 kts 355°
2026-04-12 06:18 52.88144 13.96372 6652 ft 104 kts 355°
2026-04-12 06:18 52.88874 13.96314 6804 ft 104 kts 355°
2026-04-12 06:18 52.89585 13.96258 6955 ft 103 kts 355°
2026-04-12 06:19 52.90299 13.96201 7108 ft 102 kts 355°
2026-04-12 06:19 52.90973 13.95939 7272 ft 98 kts 319°
2026-04-12 06:19 52.91326 13.95066 7443 ft 89 kts 278°
2026-04-12 06:19 52.91442 13.94079 7600 ft 86 kts 270°
2026-04-12 06:20 52.91518 13.93101 7751 ft 85 kts 268°
2026-04-12 06:20 52.91580 13.92118 7883 ft 87 kts 268°
2026-04-12 06:20 52.91636 13.91108 8011 ft 88 kts 268°
2026-04-12 06:20 52.91690 13.90038 8056 ft 99 kts 268°
2026-04-12 06:21 52.91749 13.88875 8059 ft 105 kts 269°
2026-04-12 06:21 52.91813 13.87640 8058 ft 109 kts 270°
2026-04-12 06:21 52.91874 13.86375 8057 ft 111 kts 269°
2026-04-12 06:21 52.91935 13.85109 8057 ft 111 kts 269°
2026-04-12 06:22 52.91992 13.83830 8056 ft 111 kts 269°
2026-04-12 06:22 52.92049 13.82555 8057 ft 111 kts 269°
2026-04-12 06:22 52.92103 13.81282 8054 ft 111 kts 268°
2026-04-12 06:22 52.92157 13.80014 8055 ft 110 kts 268°
2026-04-12 06:23 52.92211 13.78740 8057 ft 110 kts 269°
2026-04-12 06:23 52.92265 13.77471 8058 ft 110 kts 269°
2026-04-12 06:23 52.92318 13.76196 8057 ft 111 kts 268°
2026-04-12 06:23 52.92372 13.74921 8057 ft 111 kts 268°
2026-04-12 06:24 52.92425 13.73659 8057 ft 110 kts 268°
2026-04-12 06:24 52.92478 13.72383 8056 ft 110 kts 269°
2026-04-12 06:24 52.92530 13.71125 8055 ft 110 kts 268°
2026-04-12 06:24 52.92583 13.69864 8055 ft 110 kts 269°
2026-04-12 06:25 52.92635 13.68616 8056 ft 110 kts 268°
2026-04-12 06:25 52.92687 13.67352 8055 ft 110 kts 268°
2026-04-12 06:25 52.92739 13.66079 8056 ft 110 kts 268°
2026-04-12 06:25 52.92791 13.64829 8057 ft 110 kts 268°
2026-04-12 06:26 52.92844 13.63558 8057 ft 110 kts 268°
2026-04-12 06:26 52.92897 13.62290 8057 ft 110 kts 268°
2026-04-12 06:26 52.92949 13.61023 8057 ft 110 kts 268°
2026-04-12 06:26 52.93001 13.59753 8057 ft 110 kts 268°
2026-04-12 06:27 52.93053 13.58493 8055 ft 110 kts 268°
2026-04-12 06:27 52.93105 13.57222 8054 ft 110 kts 268°
2026-04-12 06:27 52.93156 13.55961 8052 ft 110 kts 268°
2026-04-12 06:27 52.93208 13.54698 8053 ft 110 kts 268°
2026-04-12 06:28 52.93259 13.53438 8053 ft 110 kts 268°
2026-04-12 06:28 52.93310 13.52175 8052 ft 110 kts 268°
2026-04-12 06:28 52.93362 13.50905 8054 ft 109 kts 268°
2026-04-12 06:28 52.93412 13.49657 8055 ft 109 kts 268°
2026-04-12 06:29 52.93463 13.48402 8055 ft 110 kts 268°
2026-04-12 06:29 52.93514 13.47128 8053 ft 110 kts 267°
2026-04-12 06:29 52.93565 13.45861 8053 ft 110 kts 267°
2026-04-12 06:29 52.93616 13.44585 8052 ft 110 kts 267°
2026-04-12 06:30 52.93666 13.43313 8053 ft 110 kts 267°
2026-04-12 06:30 52.93716 13.42055 8052 ft 110 kts 268°
2026-04-12 06:30 52.93766 13.40781 8052 ft 110 kts 268°
2026-04-12 06:30 52.93815 13.39519 8050 ft 110 kts 268°
2026-04-12 06:31 52.93864 13.38258 8051 ft 110 kts 267°
2026-04-12 06:31 52.93911 13.36998 8051 ft 109 kts 268°
2026-04-12 06:31 52.93959 13.35736 8049 ft 109 kts 267°
2026-04-12 06:31 52.94004 13.34497 8048 ft 109 kts 267°
2026-04-12 06:32 52.94050 13.33242 8049 ft 108 kts 267°
2026-04-12 06:32 52.94095 13.31995 8048 ft 109 kts 266°
2026-04-12 06:32 52.94143 13.30736 8051 ft 109 kts 267°
2026-04-12 06:32 52.94189 13.29504 8052 ft 109 kts 266°
2026-04-12 06:33 52.94237 13.28238 8050 ft 109 kts 266°
2026-04-12 06:33 52.94250 13.26988 8054 ft 106 kts 253°
2026-04-12 06:33 52.94023 13.25847 8052 ft 105 kts 242°
2026-04-12 06:33 52.93751 13.24727 8049 ft 105 kts 242°
2026-04-12 06:34 52.93477 13.23613 8049 ft 105 kts 242°
2026-04-12 06:34 52.93201 13.22494 8049 ft 105 kts 242°
2026-04-12 06:34 52.92924 13.21376 8047 ft 105 kts 242°
2026-04-12 06:34 52.92646 13.20258 8048 ft 105 kts 241°
2026-04-12 06:35 52.92088 13.18016 8048 ft 104 kts 241°
2026-04-12 06:35 52.91811 13.16905 8050 ft 104 kts 242°
2026-04-12 06:35 52.91536 13.15805 8052 ft 104 kts 240°
2026-04-12 06:36 52.91257 13.14691 8049 ft 103 kts 242°
2026-04-12 06:36 52.90925 13.13646 8052 ft 100 kts 222°
2026-04-12 06:36 52.90398 13.12901 8049 ft 100 kts 213°
2026-04-12 06:36 52.89848 13.12209 8047 ft 100 kts 213°
2026-04-12 06:37 52.89292 13.11519 8047 ft 100 kts 213°
2026-04-12 06:37 52.88730 13.10824 8047 ft 100 kts 213°
2026-04-12 06:37 52.88170 13.10134 8047 ft 100 kts 213°
2026-04-12 06:37 52.87616 13.09453 8046 ft 100 kts 213°
2026-04-12 06:38 52.87056 13.08767 8047 ft 100 kts 213°
2026-04-12 06:38 52.86494 13.08078 8046 ft 100 kts 213°
2026-04-12 06:38 52.85930 13.07391 8044 ft 101 kts 213°
2026-04-12 06:38 52.85371 13.06706 8043 ft 101 kts 213°
2026-04-12 06:39 52.84806 13.06019 8043 ft 101 kts 213°
2026-04-12 06:39 52.84244 13.05332 8042 ft 101 kts 213°
2026-04-12 06:39 52.83672 13.04636 8041 ft 101 kts 213°
2026-04-12 06:39 52.83109 13.03951 8041 ft 101 kts 213°
2026-04-12 06:40 52.82551 13.03272 8042 ft 100 kts 213°
2026-04-12 06:40 52.81985 13.02584 8041 ft 100 kts 213°
2026-04-12 06:40 52.81422 13.01901 8039 ft 100 kts 213°
2026-04-12 06:40 52.80862 13.01222 8040 ft 100 kts 213°
2026-04-12 06:41 52.80302 13.00540 8040 ft 100 kts 214°
2026-04-12 06:41 52.79739 12.99858 8042 ft 100 kts 213°
2026-04-12 06:41 52.79180 12.99179 8040 ft 100 kts 213°
2026-04-12 06:41 52.78618 12.98497 8037 ft 100 kts 214°
2026-04-12 06:42 52.78057 12.97819 8039 ft 100 kts 214°
2026-04-12 06:42 52.77501 12.97146 8039 ft 100 kts 214°
2026-04-12 06:42 52.76942 12.96468 8037 ft 100 kts 213°
2026-04-12 06:42 52.76380 12.95788 8039 ft 100 kts 213°
2026-04-12 06:43 52.75822 12.95112 8041 ft 100 kts 214°
2026-04-12 06:43 52.75259 12.94431 8041 ft 100 kts 214°
2026-04-12 06:43 52.74694 12.93744 8038 ft 100 kts 216°
2026-04-12 06:43 52.74199 12.92932 8039 ft 101 kts 224°
2026-04-12 06:44 52.73729 12.92075 8039 ft 101 kts 225°
2026-04-12 06:44 52.73260 12.91216 8038 ft 101 kts 225°
2026-04-12 06:44 52.72791 12.90355 8038 ft 100 kts 225°
2026-04-12 06:44 52.72331 12.89508 8036 ft 100 kts 225°
2026-04-12 06:45 52.71867 12.88656 8036 ft 100 kts 225°
2026-04-12 06:45 52.71403 12.87805 8036 ft 100 kts 225°
2026-04-12 06:45 52.70935 12.86946 8036 ft 100 kts 225°
2026-04-12 06:45 52.70473 12.86099 8038 ft 99 kts 225°
2026-04-12 06:46 52.70009 12.85247 8039 ft 99 kts 225°
2026-04-12 06:46 52.69546 12.84398 8038 ft 100 kts 225°
2026-04-12 06:46 52.69082 12.83550 8038 ft 100 kts 225°
2026-04-12 06:46 52.68623 12.82708 8036 ft 100 kts 225°
2026-04-12 06:47 52.68154 12.81850 8036 ft 100 kts 225°
2026-04-12 06:47 52.67694 12.81007 8037 ft 100 kts 225°
2026-04-12 06:47 52.67229 12.80157 8036 ft 100 kts 225°
2026-04-12 06:47 52.66764 12.79304 8036 ft 100 kts 225°
2026-04-12 06:48 52.66300 12.78455 8036 ft 100 kts 225°
2026-04-12 06:48 52.65832 12.77602 8036 ft 100 kts 225°
2026-04-12 06:48 52.65366 12.76749 8035 ft 100 kts 225°
2026-04-12 06:48 52.64900 12.75897 8034 ft 100 kts 225°
2026-04-12 06:49 52.64433 12.75043 8035 ft 100 kts 226°
2026-04-12 06:49 52.63973 12.74204 8034 ft 100 kts 225°
2026-04-12 06:49 52.63507 12.73353 8034 ft 100 kts 225°
2026-04-12 06:49 52.63043 12.72507 8033 ft 100 kts 226°
2026-04-12 06:50 52.62575 12.71654 8033 ft 100 kts 226°
2026-04-12 06:50 52.62113 12.70811 8034 ft 99 kts 226°
2026-04-12 06:50 52.61650 12.69966 8033 ft 99 kts 226°
2026-04-12 06:50 52.61187 12.69121 8034 ft 99 kts 225°
2026-04-12 06:51 52.60723 12.68276 8033 ft 99 kts 226°
2026-04-12 06:51 52.60258 12.67430 8031 ft 99 kts 226°
2026-04-12 06:51 52.59793 12.66582 8029 ft 99 kts 226°
2026-04-12 06:51 52.59328 12.65738 8029 ft 99 kts 226°
2026-04-12 06:52 52.58865 12.64898 8028 ft 99 kts 226°
2026-04-12 06:52 52.58401 12.64054 8029 ft 99 kts 226°
2026-04-12 06:52 52.57937 12.63208 8030 ft 99 kts 226°
2026-04-12 06:52 52.57473 12.62366 8032 ft 99 kts 226°
2026-04-12 06:53 52.57011 12.61526 8031 ft 99 kts 226°
2026-04-12 06:53 52.56553 12.60695 8030 ft 99 kts 226°
2026-04-12 06:53 52.56091 12.59856 8034 ft 99 kts 226°
2026-04-12 06:53 52.55629 12.59016 8034 ft 99 kts 226°
2026-04-12 06:54 52.55160 12.58166 8035 ft 99 kts 226°
2026-04-12 06:54 52.54695 12.57322 8035 ft 99 kts 226°
2026-04-12 06:54 52.54236 12.56491 8031 ft 100 kts 226°
2026-04-12 06:54 52.53770 12.55646 8028 ft 100 kts 227°
2026-04-12 06:55 52.53303 12.54800 8029 ft 99 kts 227°
2026-04-12 06:55 52.52839 12.53960 8033 ft 99 kts 226°
2026-04-12 06:55 52.52377 12.53124 8031 ft 99 kts 227°
2026-04-12 06:55 52.51915 12.52287 8030 ft 98 kts 226°
2026-04-12 06:56 52.51455 12.51454 8027 ft 98 kts 226°
2026-04-12 06:56 52.50989 12.50615 8012 ft 98 kts 227°
2026-04-12 06:56 52.50542 12.49801 8033 ft 96 kts 228°
2026-04-12 06:56 52.50088 12.48987 8018 ft 96 kts 226°
2026-04-12 06:57 52.49637 12.48176 8018 ft 95 kts 226°
2026-04-12 06:57 52.49191 12.47372 8019 ft 95 kts 227°
2026-04-12 06:57 52.48748 12.46574 8022 ft 94 kts 227°
2026-04-12 06:57 52.48306 12.45776 8020 ft 95 kts 227°
2026-04-12 06:58 52.47863 12.44978 8031 ft 94 kts 227°
2026-04-12 06:58 52.47421 12.44179 8024 ft 95 kts 227°
2026-04-12 06:58 52.46977 12.43380 8024 ft 94 kts 227°
2026-04-12 06:58 52.46535 12.42580 8015 ft 94 kts 227°
2026-04-12 06:59 52.46098 12.41795 8022 ft 93 kts 227°
2026-04-12 06:59 52.45661 12.41007 8018 ft 94 kts 227°
2026-04-12 06:59 52.45220 12.40211 8016 ft 94 kts 227°
2026-04-12 07:00 52.44333 12.38615 8013 ft 94 kts 227°
2026-04-12 07:00 52.43892 12.37820 8014 ft 94 kts 227°
2026-04-12 07:00 52.43446 12.37019 8013 ft 95 kts 227°
2026-04-12 07:00 52.43001 12.36217 8013 ft 95 kts 227°
2026-04-12 07:01 52.42551 12.35409 8011 ft 96 kts 227°
2026-04-12 07:01 52.42103 12.34603 8015 ft 96 kts 227°
2026-04-12 07:01 52.41653 12.33794 8013 ft 96 kts 226°
2026-04-12 07:01 52.41203 12.32985 8015 ft 96 kts 226°
2026-04-12 07:02 52.40757 12.32183 8013 ft 96 kts 227°
2026-04-12 07:02 52.40307 12.31375 8009 ft 95 kts 225°
2026-04-12 07:02 52.39862 12.30578 8010 ft 94 kts 226°
2026-04-12 07:02 52.39419 12.29787 8018 ft 94 kts 227°
2026-04-12 07:03 52.38976 12.28992 8012 ft 94 kts 227°
2026-04-12 07:03 52.38528 12.28189 8013 ft 95 kts 226°
2026-04-12 07:03 52.38089 12.27402 8017 ft 95 kts 227°
2026-04-12 07:03 52.37641 12.26598 8018 ft 96 kts 226°
2026-04-12 07:04 52.37192 12.25793 8021 ft 96 kts 226°
2026-04-12 07:04 52.36742 12.24986 8028 ft 96 kts 227°
2026-04-12 07:04 52.36290 12.24175 8024 ft 96 kts 226°
2026-04-12 07:04 52.35838 12.23370 8021 ft 95 kts 226°
2026-04-12 07:05 52.35388 12.22565 8023 ft 96 kts 227°
2026-04-12 07:05 52.34938 12.21760 8026 ft 96 kts 227°
2026-04-12 07:05 52.34486 12.20952 8023 ft 96 kts 227°
2026-04-12 07:05 52.34040 12.20154 8023 ft 96 kts 227°
2026-04-12 07:06 52.33587 12.19345 8021 ft 95 kts 227°
2026-04-12 07:06 52.33139 12.18545 8025 ft 95 kts 227°
2026-04-12 07:06 52.32694 12.17750 8023 ft 96 kts 227°
2026-04-12 07:06 52.32241 12.16942 8023 ft 96 kts 227°
2026-04-12 07:07 52.31793 12.16142 8024 ft 96 kts 227°
2026-04-12 07:07 52.31338 12.15331 8023 ft 97 kts 227°
2026-04-12 07:07 52.30886 12.14525 8023 ft 97 kts 227°
2026-04-12 07:07 52.30429 12.13709 8019 ft 97 kts 227°
2026-04-12 07:08 52.29969 12.12890 8021 ft 97 kts 227°
2026-04-12 07:08 52.29511 12.12074 8021 ft 98 kts 227°
2026-04-12 07:08 52.29053 12.11259 8022 ft 98 kts 227°
2026-04-12 07:08 52.28590 12.10434 8023 ft 98 kts 227°
2026-04-12 07:09 52.28125 12.09606 8024 ft 99 kts 227°
2026-04-12 07:09 52.27657 12.08774 8022 ft 99 kts 227°
2026-04-12 07:09 52.27192 12.07947 8023 ft 99 kts 227°
2026-04-12 07:09 52.26725 12.07115 8023 ft 99 kts 227°
2026-04-12 07:10 52.26262 12.06292 8020 ft 99 kts 227°
2026-04-12 07:10 52.25794 12.05460 8021 ft 99 kts 227°
2026-04-12 07:10 52.25326 12.04630 8021 ft 99 kts 227°
2026-04-12 07:10 52.24866 12.03812 8024 ft 99 kts 227°
2026-04-12 07:11 52.24394 12.02972 8020 ft 99 kts 227°
2026-04-12 07:11 52.23928 12.02147 8019 ft 99 kts 227°
2026-04-12 07:11 52.23465 12.01326 8021 ft 99 kts 227°
2026-04-12 07:11 52.23001 12.00504 8020 ft 99 kts 227°
2026-04-12 07:12 52.22533 11.99675 8020 ft 99 kts 227°
2026-04-12 07:12 52.22065 11.98844 8021 ft 100 kts 227°
2026-04-12 07:12 52.21592 11.98008 8023 ft 100 kts 227°
2026-04-12 07:12 52.21117 11.97167 8022 ft 100 kts 227°
2026-04-12 07:13 52.20641 11.96323 8024 ft 100 kts 227°
2026-04-12 07:13 52.20171 11.95492 8021 ft 101 kts 227°
2026-04-12 07:13 52.19696 11.94651 8024 ft 100 kts 227°
2026-04-12 07:13 52.19222 11.93813 8020 ft 100 kts 227°
2026-04-12 07:14 52.18751 11.92980 8020 ft 100 kts 227°
2026-04-12 07:14 52.18285 11.92158 8021 ft 99 kts 227°
2026-04-12 07:14 52.17820 11.91338 8021 ft 99 kts 227°
2026-04-12 07:14 52.17350 11.90508 8023 ft 99 kts 227°
2026-04-12 07:15 52.16885 11.89687 8024 ft 99 kts 228°
2026-04-12 07:15 52.16418 11.88864 8024 ft 99 kts 228°
2026-04-12 07:15 52.15951 11.88040 8019 ft 99 kts 228°
2026-04-12 07:15 52.15482 11.87212 8023 ft 99 kts 227°
2026-04-12 07:16 52.15013 11.86387 8023 ft 100 kts 227°
2026-04-12 07:16 52.14540 11.85553 8023 ft 100 kts 227°
2026-04-12 07:16 52.14070 11.84725 8025 ft 100 kts 227°
2026-04-12 07:16 52.13600 11.83899 8027 ft 100 kts 227°
2026-04-12 07:17 52.13128 11.83066 8030 ft 100 kts 227°
2026-04-12 07:17 52.12654 11.82237 8026 ft 100 kts 225°
2026-04-12 07:17 52.12018 11.81791 8033 ft 102 kts 195°
2026-04-12 07:17 52.11312 11.81618 8028 ft 103 kts 192°
2026-04-12 07:18 52.10596 11.81473 8025 ft 104 kts 191°
2026-04-12 07:18 52.09877 11.81334 8026 ft 104 kts 191°
2026-04-12 07:18 52.09163 11.81199 8025 ft 104 kts 191°
2026-04-12 07:18 52.08442 11.81067 8024 ft 104 kts 191°
2026-04-12 07:19 52.07725 11.80938 8023 ft 103 kts 190°
2026-04-12 07:19 52.07005 11.80808 8026 ft 104 kts 190°
2026-04-12 07:19 52.06294 11.80683 8026 ft 104 kts 190°
2026-04-12 07:19 52.05577 11.80558 8026 ft 104 kts 190°
2026-04-12 07:20 52.04848 11.80431 8026 ft 104 kts 190°
2026-04-12 07:20 52.04136 11.80308 8024 ft 104 kts 190°
2026-04-12 07:20 52.03418 11.80183 8030 ft 104 kts 189°
2026-04-12 07:20 52.02697 11.80059 8029 ft 104 kts 189°
2026-04-12 07:21 52.01976 11.79935 8030 ft 104 kts 190°
2026-04-12 07:21 52.01256 11.79812 8031 ft 104 kts 190°
2026-04-12 07:21 52.00528 11.79686 8028 ft 104 kts 190°
2026-04-12 07:21 51.99815 11.79565 8028 ft 104 kts 190°
2026-04-12 07:22 51.99121 11.79281 8027 ft 102 kts 202°
2026-04-12 07:22 51.98449 11.78902 8025 ft 102 kts 203°
2026-04-12 07:22 51.97778 11.78512 8025 ft 101 kts 203°
2026-04-12 07:22 51.97122 11.78133 8025 ft 101 kts 203°
2026-04-12 07:23 51.96458 11.77747 8028 ft 101 kts 203°
2026-04-12 07:23 51.95792 11.77362 8029 ft 101 kts 203°
2026-04-12 07:23 51.95124 11.76974 8031 ft 102 kts 203°
2026-04-12 07:23 51.94452 11.76583 8030 ft 102 kts 203°
2026-04-12 07:24 51.93781 11.76194 8030 ft 102 kts 203°
2026-04-12 07:24 51.93115 11.75808 8029 ft 102 kts 203°
2026-04-12 07:24 51.92447 11.75419 8029 ft 102 kts 203°
2026-04-12 07:24 51.91778 11.75031 8029 ft 102 kts 203°
2026-04-12 07:25 51.91106 11.74643 8033 ft 102 kts 203°
2026-04-12 07:25 51.90441 11.74256 8031 ft 103 kts 203°
2026-04-12 07:25 51.89764 11.73864 8032 ft 103 kts 203°
2026-04-12 07:25 51.89085 11.73471 8031 ft 103 kts 203°
2026-04-12 07:26 51.88409 11.73079 8029 ft 103 kts 203°
2026-04-12 07:26 51.87741 11.72692 8025 ft 103 kts 203°
2026-04-12 07:26 51.87067 11.72302 8026 ft 102 kts 203°
2026-04-12 07:26 51.86397 11.71915 8027 ft 102 kts 203°
2026-04-12 07:27 51.85729 11.71528 8031 ft 102 kts 204°
2026-04-12 07:27 51.85059 11.71139 8031 ft 102 kts 204°
2026-04-12 07:27 51.84382 11.70748 8033 ft 103 kts 204°
2026-04-12 07:27 51.83715 11.70360 8031 ft 103 kts 203°
2026-04-12 07:28 51.83037 11.69969 8033 ft 103 kts 204°
2026-04-12 07:28 51.82361 11.69577 8033 ft 103 kts 204°
2026-04-12 07:28 51.81693 11.69191 8036 ft 103 kts 204°
2026-04-12 07:28 51.81011 11.68796 8037 ft 103 kts 204°
2026-04-12 07:29 51.80336 11.68406 8040 ft 103 kts 203°
2026-04-12 07:29 51.79658 11.68013 8039 ft 103 kts 204°
2026-04-12 07:29 51.78986 11.67625 8039 ft 104 kts 203°
2026-04-12 07:29 51.78301 11.67229 8036 ft 104 kts 203°
2026-04-12 07:30 51.77623 11.66837 8036 ft 103 kts 203°
2026-04-12 07:30 51.76946 11.66446 8039 ft 103 kts 203°
2026-04-12 07:30 51.76272 11.66058 8038 ft 103 kts 203°
2026-04-12 07:30 51.75605 11.65674 8037 ft 103 kts 204°
2026-04-12 07:31 51.74932 11.65286 8036 ft 103 kts 203°
2026-04-12 07:31 51.74253 11.64895 8036 ft 103 kts 204°
2026-04-12 07:31 51.73576 11.64504 8034 ft 103 kts 204°
2026-04-12 07:31 51.72903 11.64116 8032 ft 103 kts 203°
2026-04-12 07:32 51.72219 11.63722 8030 ft 103 kts 203°
2026-04-12 07:32 51.71542 11.63331 8029 ft 103 kts 203°
2026-04-12 07:32 51.70871 11.62946 8030 ft 103 kts 203°
2026-04-12 07:32 51.70190 11.62555 8031 ft 103 kts 204°
2026-04-12 07:33 51.69509 11.62162 8030 ft 103 kts 204°
2026-04-12 07:33 51.68835 11.61774 8028 ft 103 kts 203°
2026-04-12 07:33 51.68160 11.61386 8028 ft 103 kts 203°
2026-04-12 07:33 51.67479 11.60995 8027 ft 103 kts 203°
2026-04-12 07:34 51.66797 11.60603 8029 ft 103 kts 204°
2026-04-12 07:34 51.66120 11.60214 8028 ft 103 kts 203°
2026-04-12 07:34 51.65442 11.59825 8030 ft 103 kts 203°
2026-04-12 07:34 51.64766 11.59439 8035 ft 103 kts 204°
2026-04-12 07:35 51.64086 11.59048 8030 ft 104 kts 204°
2026-04-12 07:35 51.63409 11.58659 8030 ft 104 kts 203°
2026-04-12 07:35 51.62722 11.58268 8034 ft 104 kts 204°
2026-04-12 07:35 51.62041 11.57875 8030 ft 104 kts 204°
2026-04-12 07:36 51.61361 11.57485 8031 ft 104 kts 203°
2026-04-12 07:36 51.60676 11.57091 8029 ft 104 kts 204°
2026-04-12 07:36 51.60004 11.56708 8025 ft 103 kts 204°
2026-04-12 07:36 51.59326 11.56320 8024 ft 103 kts 203°
2026-04-12 07:37 51.58657 11.55938 8029 ft 102 kts 203°
2026-04-12 07:37 51.57981 11.55552 8040 ft 103 kts 203°
2026-04-12 07:37 51.57309 11.55164 8033 ft 102 kts 203°
2026-04-12 07:37 51.56642 11.54788 8033 ft 100 kts 204°
2026-04-12 07:38 51.55985 11.54413 8012 ft 99 kts 207°
2026-04-12 07:38 51.55339 11.54049 8044 ft 100 kts 203°
2026-04-12 07:38 51.54682 11.53677 8030 ft 98 kts 202°
2026-04-12 07:38 51.54043 11.53314 8031 ft 98 kts 202°
2026-04-12 07:39 51.53401 11.52951 8029 ft 98 kts 202°
2026-04-12 07:39 51.52765 11.52586 8036 ft 96 kts 204°
2026-04-12 07:39 51.52137 11.52223 8031 ft 96 kts 201°
2026-04-12 07:39 51.51514 11.51871 8022 ft 94 kts 203°
2026-04-12 07:40 51.50909 11.51530 8031 ft 93 kts 204°
2026-04-12 07:40 51.50296 11.51180 8030 ft 92 kts 204°
2026-04-12 07:40 51.49693 11.50836 8032 ft 92 kts 204°
2026-04-12 07:40 51.49097 11.50497 8030 ft 91 kts 204°
2026-04-12 07:41 51.48498 11.50157 8030 ft 91 kts 204°
2026-04-12 07:41 51.47900 11.49817 8032 ft 91 kts 204°
2026-04-12 07:41 51.47303 11.49478 8037 ft 91 kts 204°
2026-04-12 07:41 51.46706 11.49140 8030 ft 91 kts 204°
2026-04-12 07:42 51.46106 11.48798 8031 ft 91 kts 204°
2026-04-12 07:42 51.45513 11.48460 8031 ft 90 kts 203°
2026-04-12 07:42 51.44924 11.48125 8033 ft 90 kts 204°
2026-04-12 07:43 51.43148 11.47119 8037 ft 90 kts 204°
2026-04-12 07:43 51.42557 11.46782 8035 ft 90 kts 204°
2026-04-12 07:43 51.41961 11.46445 8035 ft 90 kts 204°
2026-04-12 07:44 51.41372 11.46109 8039 ft 89 kts 203°
2026-04-12 07:44 51.40781 11.45775 8036 ft 89 kts 204°
2026-04-12 07:44 51.40201 11.45447 8032 ft 89 kts 204°
2026-04-12 07:44 51.39613 11.45133 8035 ft 89 kts 202°
2026-04-12 07:45 51.39022 11.44843 8037 ft 89 kts 201°
2026-04-12 07:45 51.38423 11.44553 8036 ft 89 kts 201°
2026-04-12 07:45 51.37832 11.44265 8032 ft 89 kts 201°
2026-04-12 07:45 51.37244 11.43982 8037 ft 88 kts 201°
2026-04-12 07:46 51.36650 11.43696 8040 ft 88 kts 201°
2026-04-12 07:46 51.36065 11.43412 8040 ft 88 kts 201°
2026-04-12 07:46 51.35479 11.43129 8041 ft 88 kts 201°
2026-04-12 07:46 51.34889 11.42844 8043 ft 88 kts 201°
2026-04-12 07:47 51.34299 11.42559 8043 ft 89 kts 201°
2026-04-12 07:47 51.33706 11.42271 8043 ft 89 kts 201°
2026-04-12 07:47 51.33113 11.41985 8044 ft 90 kts 202°
2026-04-12 07:47 51.32507 11.41691 8042 ft 90 kts 202°
2026-04-12 07:48 51.31902 11.41397 8041 ft 91 kts 201°
2026-04-12 07:48 51.31296 11.41104 8041 ft 92 kts 201°
2026-04-12 07:48 51.30676 11.40805 8039 ft 92 kts 201°
2026-04-12 07:48 51.30061 11.40507 8041 ft 93 kts 201°
2026-04-12 07:49 51.29435 11.40203 8041 ft 93 kts 201°
2026-04-12 07:49 51.28814 11.39902 8043 ft 94 kts 201°
2026-04-12 07:49 51.28182 11.39597 8044 ft 94 kts 201°
2026-04-12 07:49 51.27555 11.39294 8044 ft 94 kts 201°
2026-04-12 07:50 51.26923 11.38989 8044 ft 95 kts 201°
2026-04-12 07:50 51.26286 11.38682 8043 ft 95 kts 201°
2026-04-12 07:50 51.25648 11.38374 8044 ft 96 kts 201°
2026-04-12 07:50 51.25015 11.38068 8044 ft 96 kts 201°
2026-04-12 07:51 51.24366 11.37756 8043 ft 97 kts 201°
2026-04-12 07:51 51.23719 11.37444 8042 ft 97 kts 201°
2026-04-12 07:51 51.23067 11.37129 8043 ft 97 kts 201°
2026-04-12 07:51 51.22417 11.36816 8042 ft 98 kts 201°
2026-04-12 07:52 51.21771 11.36504 8042 ft 98 kts 201°
2026-04-12 07:52 51.21110 11.36185 8042 ft 99 kts 201°
2026-04-12 07:52 51.20452 11.35869 8039 ft 99 kts 201°
2026-04-12 07:52 51.19793 11.35552 8040 ft 99 kts 201°
2026-04-12 07:53 51.19135 11.35235 8038 ft 99 kts 201°
2026-04-12 07:53 51.18471 11.34918 8037 ft 99 kts 200°
2026-04-12 07:53 51.17812 11.34600 8041 ft 99 kts 200°
2026-04-12 07:53 51.17148 11.34282 8041 ft 100 kts 200°
2026-04-12 07:54 51.16479 11.33961 8042 ft 100 kts 200°
2026-04-12 07:54 51.15813 11.33640 8042 ft 101 kts 200°
2026-04-12 07:54 51.15130 11.33313 8042 ft 101 kts 200°
2026-04-12 07:54 51.14459 11.32991 8042 ft 101 kts 200°
2026-04-12 07:55 51.13777 11.32663 8041 ft 102 kts 200°
2026-04-12 07:55 51.13099 11.32339 8042 ft 102 kts 200°
2026-04-12 07:55 51.12420 11.32014 8041 ft 102 kts 200°
2026-04-12 07:55 51.11742 11.31689 8043 ft 102 kts 200°
2026-04-12 07:56 51.11064 11.31364 8040 ft 102 kts 200°
2026-04-12 07:56 51.10378 11.31035 8041 ft 103 kts 200°
2026-04-12 07:56 51.09687 11.30705 8041 ft 103 kts 200°
2026-04-12 07:56 51.08999 11.30377 8041 ft 103 kts 200°
2026-04-12 07:57 51.08315 11.30049 8041 ft 103 kts 200°
2026-04-12 07:57 51.07626 11.29720 8041 ft 103 kts 200°
2026-04-12 07:57 51.06939 11.29392 8040 ft 103 kts 200°
2026-04-12 07:57 51.06249 11.29063 8040 ft 103 kts 200°
2026-04-12 07:58 51.05557 11.28732 8041 ft 104 kts 200°
2026-04-12 07:58 51.04860 11.28399 8043 ft 104 kts 200°
2026-04-12 07:58 51.04160 11.28065 8043 ft 105 kts 200°
2026-04-12 07:58 51.03467 11.27735 8042 ft 105 kts 200°
2026-04-12 07:59 51.02767 11.27401 8042 ft 105 kts 200°
2026-04-12 07:59 51.02067 11.27066 8042 ft 105 kts 200°
2026-04-12 07:59 51.01365 11.26731 8042 ft 104 kts 200°
2026-04-12 07:59 51.00665 11.26398 8041 ft 104 kts 200°
2026-04-12 08:00 50.99974 11.26070 8040 ft 104 kts 200°
2026-04-12 08:00 50.99279 11.25740 8041 ft 104 kts 200°
2026-04-12 08:00 50.98580 11.25407 8044 ft 104 kts 200°
2026-04-12 08:00 50.97884 11.25076 8043 ft 104 kts 200°
2026-04-12 08:01 50.97181 11.24742 8043 ft 104 kts 200°
2026-04-12 08:01 50.96487 11.24413 8041 ft 105 kts 200°
2026-04-12 08:01 50.95791 11.24084 8042 ft 105 kts 200°
2026-04-12 08:01 50.95094 11.23731 8040 ft 104 kts 205°
2026-04-12 08:02 50.94442 11.23249 8042 ft 103 kts 208°
2026-04-12 08:02 50.93798 11.22749 8043 ft 103 kts 209°
2026-04-12 08:02 50.93160 11.22250 8043 ft 103 kts 209°
2026-04-12 08:02 50.92513 11.21744 8042 ft 103 kts 208°
2026-04-12 08:03 50.91869 11.21240 8043 ft 103 kts 208°
2026-04-12 08:03 50.91225 11.20738 8043 ft 103 kts 209°
2026-04-12 08:03 50.90587 11.20239 8043 ft 102 kts 209°
2026-04-12 08:03 50.89947 11.19739 8043 ft 102 kts 208°
2026-04-12 08:04 50.89311 11.19242 8045 ft 102 kts 208°
2026-04-12 08:04 50.88672 11.18744 8043 ft 103 kts 208°
2026-04-12 08:04 50.88032 11.18244 8043 ft 102 kts 209°
2026-04-12 08:04 50.87389 11.17744 8041 ft 103 kts 208°
2026-04-12 08:05 50.86742 11.17240 8039 ft 103 kts 209°
2026-04-12 08:05 50.86097 11.16737 8040 ft 104 kts 208°
2026-04-12 08:05 50.85456 11.16237 8041 ft 104 kts 209°
2026-04-12 08:05 50.84807 11.15730 8040 ft 104 kts 209°
2026-04-12 08:06 50.84191 11.15152 8038 ft 103 kts 215°
2026-04-12 08:06 50.83593 11.14525 8039 ft 102 kts 216°
2026-04-12 08:06 50.83001 11.13901 8039 ft 102 kts 215°
2026-04-12 08:06 50.82408 11.13275 8041 ft 102 kts 216°
2026-04-12 08:07 50.81827 11.12662 8039 ft 102 kts 215°
2026-04-12 08:07 50.81239 11.12042 8040 ft 101 kts 216°
2026-04-12 08:07 50.80651 11.11422 8038 ft 101 kts 216°
2026-04-12 08:07 50.80064 11.10803 8036 ft 101 kts 216°
2026-04-12 08:08 50.79470 11.10178 8034 ft 101 kts 216°
2026-04-12 08:08 50.78884 11.09560 8035 ft 101 kts 216°
2026-04-12 08:08 50.78296 11.08942 8035 ft 101 kts 216°
2026-04-12 08:08 50.77710 11.08325 8033 ft 101 kts 216°
2026-04-12 08:09 50.77124 11.07708 8032 ft 102 kts 216°
2026-04-12 08:09 50.76532 11.07085 8034 ft 102 kts 216°
2026-04-12 08:09 50.75942 11.06464 8034 ft 102 kts 216°
2026-04-12 08:09 50.75351 11.05842 8033 ft 102 kts 216°
2026-04-12 08:10 50.74757 11.05218 8033 ft 102 kts 215°
2026-04-12 08:10 50.74170 11.04600 8033 ft 102 kts 216°
2026-04-12 08:10 50.73580 11.03980 8032 ft 101 kts 216°
2026-04-12 08:10 50.72992 11.03363 8031 ft 101 kts 215°
2026-04-12 08:11 50.72403 11.02745 8030 ft 102 kts 215°
2026-04-12 08:11 50.71767 11.02249 8032 ft 104 kts 193°
2026-04-12 08:11 50.71044 11.02185 8028 ft 106 kts 185°
2026-04-12 08:11 50.70306 11.02186 8027 ft 106 kts 184°
2026-04-12 08:12 50.69563 11.02195 8027 ft 107 kts 184°
2026-04-12 08:12 50.68810 11.02209 8026 ft 107 kts 184°
2026-04-12 08:12 50.68071 11.02226 8024 ft 107 kts 184°
2026-04-12 08:12 50.67320 11.02243 8023 ft 107 kts 183°
2026-04-12 08:13 50.66578 11.02261 8024 ft 107 kts 184°
2026-04-12 08:13 50.65831 11.02281 8022 ft 107 kts 183°
2026-04-12 08:13 50.65078 11.02302 8022 ft 107 kts 183°
2026-04-12 08:13 50.64328 11.02323 8021 ft 107 kts 183°
2026-04-12 08:14 50.63582 11.02346 8018 ft 107 kts 183°
2026-04-12 08:14 50.62833 11.02365 8016 ft 107 kts 183°
2026-04-12 08:14 50.62091 11.02390 8017 ft 106 kts 184°
2026-04-12 08:14 50.61357 11.02412 8019 ft 106 kts 184°
2026-04-12 08:15 50.60619 11.02433 8022 ft 106 kts 184°
2026-04-12 08:15 50.59877 11.02454 8027 ft 107 kts 184°
2026-04-12 08:15 50.59129 11.02477 8023 ft 107 kts 183°
2026-04-12 08:15 50.58381 11.02499 8027 ft 107 kts 184°
2026-04-12 08:16 50.57631 11.02522 8017 ft 107 kts 184°
2026-04-12 08:16 50.56891 11.02544 8021 ft 106 kts 184°
2026-04-12 08:16 50.56149 11.02566 8020 ft 106 kts 184°
2026-04-12 08:16 50.55403 11.02587 8019 ft 106 kts 184°
2026-04-12 08:17 50.54662 11.02609 8015 ft 107 kts 184°
2026-04-12 08:17 50.53920 11.02632 8020 ft 107 kts 183°
2026-04-12 08:17 50.53176 11.02655 8012 ft 107 kts 184°
2026-04-12 08:17 50.52438 11.02676 8023 ft 107 kts 184°
2026-04-12 08:18 50.51694 11.02698 8023 ft 107 kts 184°
2026-04-12 08:18 50.50944 11.02722 8023 ft 107 kts 184°
2026-04-12 08:18 50.50205 11.02743 8020 ft 107 kts 184°
2026-04-12 08:18 50.49454 11.02765 8021 ft 107 kts 184°
2026-04-12 08:19 50.48713 11.02788 8022 ft 106 kts 184°
2026-04-12 08:19 50.47973 11.02810 8022 ft 107 kts 184°
2026-04-12 08:19 50.47224 11.02832 8025 ft 107 kts 184°
2026-04-12 08:19 50.46487 11.02852 8018 ft 107 kts 184°
2026-04-12 08:20 50.45745 11.02876 8014 ft 105 kts 184°
2026-04-12 08:20 50.45013 11.02899 8016 ft 105 kts 184°
2026-04-12 08:20 50.44283 11.02921 8022 ft 104 kts 184°
2026-04-12 08:20 50.43562 11.02942 8027 ft 105 kts 184°
2026-04-12 08:21 50.42823 11.02965 8024 ft 105 kts 184°
2026-04-12 08:21 50.42091 11.02986 8021 ft 106 kts 183°
2026-04-12 08:21 50.41348 11.03009 8014 ft 105 kts 184°
2026-04-12 08:21 50.40625 11.03032 8016 ft 103 kts 184°
2026-04-12 08:22 50.39903 11.03054 8031 ft 103 kts 185°
2026-04-12 08:22 50.39178 11.03079 8014 ft 104 kts 185°
2026-04-12 08:22 50.38461 11.03098 8019 ft 103 kts 184°
2026-04-12 08:22 50.37736 11.03119 8020 ft 103 kts 184°
2026-04-12 08:23 50.37026 11.03141 8020 ft 103 kts 184°
2026-04-12 08:23 50.36315 11.03164 8024 ft 102 kts 185°
2026-04-12 08:23 50.35604 11.03183 8027 ft 102 kts 184°
2026-04-12 08:23 50.34895 11.03206 8031 ft 101 kts 184°
2026-04-12 08:24 50.34187 11.03225 8028 ft 102 kts 184°
2026-04-12 08:24 50.33475 11.03247 8027 ft 102 kts 185°
2026-04-12 08:24 50.32772 11.03267 8028 ft 102 kts 184°
2026-04-12 08:24 50.32060 11.03288 8041 ft 103 kts 184°
2026-04-12 08:25 50.31335 11.03312 8034 ft 103 kts 185°
2026-04-12 08:25 50.30616 11.03332 8038 ft 103 kts 184°
2026-04-12 08:25 50.29896 11.03357 8042 ft 103 kts 184°
2026-04-12 08:25 50.29180 11.03375 8013 ft 102 kts 184°
2026-04-12 08:26 50.28486 11.03398 8018 ft 100 kts 184°
2026-04-12 08:26 50.27797 11.03430 8032 ft 95 kts 183°
2026-04-12 08:26 50.27139 11.03452 8040 ft 95 kts 186°
2026-04-12 08:26 50.26481 11.03472 8040 ft 96 kts 186°
2026-04-12 08:27 50.25816 11.03487 8026 ft 94 kts 185°
2026-04-12 08:27 50.25173 11.03504 8027 ft 92 kts 184°
2026-04-12 08:27 50.24542 11.03526 8034 ft 90 kts 184°
2026-04-12 08:27 50.23915 11.03548 8036 ft 88 kts 185°
2026-04-12 08:28 50.23303 11.03569 8029 ft 88 kts 185°
2026-04-12 08:28 50.22697 11.03589 8031 ft 87 kts 185°
2026-04-12 08:28 50.22100 11.03609 8030 ft 86 kts 185°
2026-04-12 08:28 50.21499 11.03629 8030 ft 85 kts 185°
2026-04-12 08:29 50.20909 11.03649 8031 ft 85 kts 185°
2026-04-12 08:29 50.20316 11.03667 8032 ft 85 kts 186°
2026-04-12 08:29 50.19724 11.03687 8026 ft 85 kts 186°
2026-04-12 08:29 50.19143 11.03708 8025 ft 84 kts 187°
2026-04-12 08:30 50.18566 11.03724 8018 ft 82 kts 187°
2026-04-12 08:30 50.17994 11.03749 8014 ft 79 kts 186°
2026-04-12 08:30 50.17459 11.03773 8004 ft 75 kts 186°
2026-04-12 08:30 50.16957 11.03785 8016 ft 71 kts 184°
2026-04-12 08:31 50.16483 11.03820 8006 ft 65 kts 182°
2026-04-12 08:31 50.16020 11.04089 7862 ft 88 kts 134°
2026-04-12 08:31 50.15655 11.04776 7860 ft 77 kts 168°
2026-04-12 08:31 50.15276 11.04458 7728 ft 65 kts 259°
2026-04-12 08:32 50.15363 11.03877 7780 ft 60 kts 286°
2026-04-12 08:32 50.15465 11.03266 7690 ft 63 kts 252°
2026-04-12 08:32 50.15025 11.03218 7561 ft 90 kts 137°
2026-04-12 08:32 50.14447 11.03600 7428 ft 94 kts 180°
2026-04-12 08:33 50.13779 11.03681 7289 ft 102 kts 184°
2026-04-12 08:33 50.13042 11.03744 7070 ft 110 kts 185°
2026-04-12 08:33 50.12255 11.03796 6910 ft 116 kts 182°
2026-04-12 08:33 50.11438 11.03839 6733 ft 119 kts 185°
2026-04-12 08:34 50.10617 11.03881 6598 ft 119 kts 184°
2026-04-12 08:34 50.09774 11.03915 6424 ft 123 kts 182°
2026-04-12 08:34 50.08912 11.03942 6235 ft 125 kts 184°
2026-04-12 08:34 50.08038 11.03973 6064 ft 126 kts 185°
2026-04-12 08:35 50.07182 11.03998 6043 ft 120 kts 182°
2026-04-12 08:35 50.06352 11.04033 6050 ft 117 kts 182°
2026-04-12 08:35 50.05529 11.04058 6049 ft 118 kts 184°
2026-04-12 08:35 50.04711 11.04086 6045 ft 118 kts 182°
2026-04-12 08:36 50.03891 11.04112 6036 ft 120 kts 182°
2026-04-12 08:36 50.03058 11.04133 6023 ft 116 kts 182°
2026-04-12 08:36 50.02252 11.04157 6051 ft 117 kts 184°
2026-04-12 08:36 50.01443 11.04192 6030 ft 116 kts 186°
2026-04-12 08:37 50.00635 11.04207 6069 ft 118 kts 183°
2026-04-12 08:37 49.99812 11.04233 6041 ft 121 kts 181°
2026-04-12 08:37 49.98976 11.04255 6049 ft 119 kts 184°
2026-04-12 08:37 49.98143 11.04280 6042 ft 119 kts 182°
2026-04-12 08:38 49.97330 11.04301 6041 ft 117 kts 183°
2026-04-12 08:38 49.96516 11.04326 6038 ft 117 kts 183°
2026-04-12 08:38 49.95704 11.04357 6044 ft 117 kts 182°
2026-04-12 08:38 49.94878 11.04379 6043 ft 118 kts 182°
2026-04-12 08:39 49.94064 11.04403 6031 ft 118 kts 184°
2026-04-12 08:39 49.93241 11.04423 6033 ft 118 kts 184°
2026-04-12 08:39 49.92407 11.04448 6026 ft 119 kts 181°
2026-04-12 08:39 49.91584 11.04472 6017 ft 118 kts 184°
2026-04-12 08:40 49.90767 11.04500 6052 ft 118 kts 181°
2026-04-12 08:40 49.89938 11.04520 6028 ft 119 kts 185°
2026-04-12 08:40 49.89115 11.04543 6027 ft 117 kts 183°
2026-04-12 08:40 49.88295 11.04569 6027 ft 118 kts 182°
2026-04-12 08:41 49.87467 11.04591 6028 ft 118 kts 183°
2026-04-12 08:41 49.86650 11.04615 6028 ft 118 kts 182°
2026-04-12 08:41 49.85838 11.04638 6028 ft 118 kts 182°
2026-04-12 08:41 49.85012 11.04661 6028 ft 118 kts 182°
2026-04-12 08:42 49.84191 11.04685 6030 ft 118 kts 182°
2026-04-12 08:42 49.83371 11.04709 6031 ft 118 kts 183°
2026-04-12 08:42 49.82553 11.04734 6043 ft 118 kts 182°
2026-04-12 08:42 49.81728 11.04759 6044 ft 119 kts 182°
2026-04-12 08:43 49.80886 11.04787 6031 ft 120 kts 182°
2026-04-12 08:43 49.80056 11.04812 6030 ft 119 kts 183°
2026-04-12 08:43 49.79225 11.04840 6045 ft 120 kts 183°
2026-04-12 08:43 49.78383 11.04851 6034 ft 119 kts 184°
2026-04-12 08:44 49.77555 11.04877 6029 ft 120 kts 182°
2026-04-12 08:44 49.76725 11.04904 6030 ft 118 kts 180°
2026-04-12 08:44 49.75904 11.04930 6033 ft 119 kts 184°
2026-04-12 08:44 49.75069 11.04955 6044 ft 121 kts 181°
2026-04-12 08:45 49.74224 11.04977 6042 ft 121 kts 181°
2026-04-12 08:45 49.73374 11.05002 6030 ft 120 kts 181°
2026-04-12 08:45 49.72537 11.05026 6030 ft 120 kts 181°
2026-04-12 08:45 49.71713 11.05049 6033 ft 119 kts 182°
2026-04-12 08:46 49.70880 11.05077 6015 ft 119 kts 180°
2026-04-12 08:46 49.70049 11.05099 6033 ft 118 kts 181°
2026-04-12 08:46 49.68375 11.05149 6032 ft 121 kts 181°
2026-04-12 08:47 49.67537 11.05175 6028 ft 120 kts 183°
2026-04-12 08:47 49.66706 11.05191 6039 ft 120 kts 183°
2026-04-12 08:47 49.65940 11.04812 6028 ft 114 kts 220°
2026-04-12 08:47 49.65353 11.04019 6043 ft 112 kts 229°
2026-04-12 08:48 49.64794 11.03167 6040 ft 113 kts 229°
2026-04-12 08:48 49.64240 11.02313 6032 ft 113 kts 227°
2026-04-12 08:48 49.63691 11.01446 6020 ft 113 kts 229°
2026-04-12 08:48 49.63139 11.00582 6020 ft 112 kts 228°
2026-04-12 08:49 49.62603 10.99735 6031 ft 112 kts 229°
2026-04-12 08:49 49.62062 10.98882 6036 ft 112 kts 229°
2026-04-12 08:49 49.61512 10.98014 6032 ft 112 kts 231°
2026-04-12 08:49 49.60975 10.97157 6040 ft 112 kts 229°
2026-04-12 08:50 49.60428 10.96293 6029 ft 113 kts 230°
2026-04-12 08:50 49.59882 10.95421 6040 ft 114 kts 231°
2026-04-12 08:50 49.59331 10.94548 6028 ft 113 kts 229°
2026-04-12 08:50 49.58792 10.93693 6037 ft 112 kts 228°
2026-04-12 08:51 49.58242 10.92818 6043 ft 113 kts 229°
2026-04-12 08:51 49.57701 10.91958 6042 ft 113 kts 229°
2026-04-12 08:51 49.57148 10.91081 6040 ft 114 kts 229°
2026-04-12 08:51 49.56594 10.90202 6042 ft 113 kts 229°
2026-04-12 08:52 49.56042 10.89328 6044 ft 114 kts 229°
2026-04-12 08:52 49.55489 10.88453 6050 ft 114 kts 229°
2026-04-12 08:52 49.54937 10.87574 6044 ft 115 kts 229°
2026-04-12 08:52 49.54379 10.86691 6039 ft 115 kts 230°
2026-04-12 08:53 49.53819 10.85804 6038 ft 114 kts 230°
2026-04-12 08:53 49.53271 10.84939 6035 ft 113 kts 230°
2026-04-12 08:53 49.52727 10.84075 6044 ft 113 kts 230°
2026-04-12 08:53 49.52176 10.83205 6035 ft 114 kts 230°
2026-04-12 08:54 49.51625 10.82332 6046 ft 114 kts 228°
2026-04-12 08:54 49.51071 10.81454 6039 ft 114 kts 229°
2026-04-12 08:54 49.50515 10.80574 6039 ft 113 kts 229°
2026-04-12 08:54 49.49972 10.79715 6036 ft 112 kts 229°
2026-04-12 08:55 49.49423 10.78852 6050 ft 112 kts 229°
2026-04-12 08:55 49.48871 10.77983 6030 ft 113 kts 227°
2026-04-12 08:55 49.48328 10.77128 6038 ft 113 kts 228°
2026-04-12 08:55 49.47776 10.76257 6036 ft 113 kts 228°
2026-04-12 08:56 49.47226 10.75387 6041 ft 113 kts 230°
2026-04-12 08:56 49.46677 10.74525 6048 ft 113 kts 229°
2026-04-12 08:56 49.46124 10.73653 6043 ft 113 kts 229°
2026-04-12 08:56 49.45575 10.72789 6037 ft 114 kts 230°
2026-04-12 08:57 49.45015 10.71911 6050 ft 114 kts 229°
2026-04-12 08:57 49.44461 10.71035 6036 ft 115 kts 230°
2026-04-12 08:57 49.43911 10.70166 6048 ft 113 kts 230°
2026-04-12 08:57 49.43362 10.69301 6044 ft 113 kts 231°
2026-04-12 08:58 49.42812 10.68437 6052 ft 112 kts 229°
2026-04-12 08:58 49.42266 10.67578 6044 ft 113 kts 229°
2026-04-12 08:58 49.41717 10.66725 6050 ft 112 kts 229°
2026-04-12 08:58 49.41176 10.65862 6049 ft 111 kts 229°
2026-04-12 08:59 49.40638 10.64992 6080 ft 113 kts 230°
2026-04-12 08:59 49.40092 10.64108 6076 ft 115 kts 231°
2026-04-12 08:59 49.39547 10.63209 6078 ft 113 kts 227°
2026-04-12 08:59 49.38998 10.62332 6098 ft 111 kts 230°
2026-04-12 09:00 49.38451 10.61462 6040 ft 116 kts 226°
2026-04-12 09:00 49.37904 10.60568 6070 ft 116 kts 228°
2026-04-12 09:00 49.37354 10.59673 6032 ft 116 kts 228°
2026-04-12 09:00 49.36807 10.58792 6023 ft 113 kts 231°
2026-04-12 09:01 49.36262 10.57915 6049 ft 113 kts 227°
2026-04-12 09:01 49.35724 10.57047 6044 ft 112 kts 230°
2026-04-12 09:01 49.35192 10.56184 6064 ft 111 kts 229°
2026-04-12 09:01 49.34657 10.55328 6055 ft 113 kts 229°
2026-04-12 09:02 49.34100 10.54466 6056 ft 113 kts 229°
2026-04-12 09:02 49.33546 10.53614 6052 ft 113 kts 228°
2026-04-12 09:02 49.32988 10.52756 6054 ft 113 kts 228°
2026-04-12 09:02 49.32429 10.51900 6069 ft 113 kts 228°
2026-04-12 09:03 49.31876 10.51049 6063 ft 114 kts 227°
2026-04-12 09:03 49.31321 10.50197 6061 ft 112 kts 228°
2026-04-12 09:03 49.30766 10.49351 6058 ft 113 kts 228°
2026-04-12 09:03 49.30210 10.48499 6064 ft 112 kts 229°
2026-04-12 09:04 49.29663 10.47664 6059 ft 112 kts 228°
2026-04-12 09:04 49.29115 10.46825 6059 ft 111 kts 228°
2026-04-12 09:04 49.28563 10.45983 6059 ft 111 kts 229°
2026-04-12 09:04 49.28016 10.45146 6062 ft 111 kts 227°
2026-04-12 09:05 49.27465 10.44305 6061 ft 112 kts 229°
2026-04-12 09:05 49.26920 10.43471 6061 ft 112 kts 228°
2026-04-12 09:05 49.26365 10.42624 6078 ft 112 kts 228°
2026-04-12 09:05 49.25811 10.41778 6073 ft 114 kts 227°
2026-04-12 09:06 49.25251 10.40917 6060 ft 113 kts 226°
2026-04-12 09:06 49.24691 10.40072 6036 ft 114 kts 227°
2026-04-12 09:06 49.24130 10.39218 6068 ft 112 kts 229°
2026-04-12 09:06 49.23580 10.38370 6046 ft 112 kts 228°
2026-04-12 09:07 49.23037 10.37533 6032 ft 111 kts 227°
2026-04-12 09:07 49.22499 10.36702 6040 ft 109 kts 229°
2026-04-12 09:07 49.21962 10.35863 6047 ft 111 kts 231°
2026-04-12 09:07 49.21416 10.35017 6044 ft 112 kts 228°
2026-04-12 09:08 49.20868 10.34171 6050 ft 112 kts 227°
2026-04-12 09:08 49.20318 10.33310 6062 ft 112 kts 228°
2026-04-12 09:08 49.19759 10.32441 6046 ft 115 kts 227°
2026-04-12 09:08 49.19206 10.31585 6040 ft 114 kts 228°
2026-04-12 09:09 49.18648 10.30714 6048 ft 113 kts 228°
2026-04-12 09:09 49.18095 10.29859 6037 ft 115 kts 227°
2026-04-12 09:09 49.17533 10.28989 6021 ft 113 kts 227°
2026-04-12 09:09 49.16987 10.28141 6041 ft 112 kts 227°
2026-04-12 09:10 49.16439 10.27296 6042 ft 111 kts 227°
2026-04-12 09:10 49.15897 10.26454 6043 ft 111 kts 227°
2026-04-12 09:10 49.15357 10.25621 6043 ft 111 kts 226°
2026-04-12 09:10 49.14816 10.24782 6049 ft 111 kts 227°
2026-04-12 09:11 49.14180 10.24124 6059 ft 115 kts 197°
2026-04-12 09:11 49.13376 10.24020 6056 ft 117 kts 184°
2026-04-12 09:11 49.12559 10.24029 6045 ft 118 kts 182°
2026-04-12 09:11 49.11731 10.24047 6038 ft 118 kts 182°
2026-04-12 09:12 49.10915 10.24071 6047 ft 118 kts 181°
2026-04-12 09:12 49.10092 10.24098 6036 ft 118 kts 181°
2026-04-12 09:12 49.09271 10.24131 6044 ft 118 kts 181°
2026-04-12 09:12 49.08445 10.24160 6058 ft 120 kts 180°
2026-04-12 09:13 49.07603 10.24191 6042 ft 120 kts 180°
2026-04-12 09:13 49.06765 10.24228 6048 ft 120 kts 180°
2026-04-12 09:13 49.05935 10.24262 6029 ft 119 kts 180°
2026-04-12 09:13 49.05112 10.24292 6038 ft 117 kts 181°
2026-04-12 09:14 49.04297 10.24332 6031 ft 115 kts 182°
2026-04-12 09:14 49.03498 10.24362 6039 ft 117 kts 180°
2026-04-12 09:14 49.02678 10.24399 6053 ft 117 kts 180°
2026-04-12 09:14 49.01863 10.24434 6044 ft 118 kts 182°
2026-04-12 09:15 49.01044 10.24468 6040 ft 118 kts 179°
2026-04-12 09:15 49.00218 10.24498 6037 ft 118 kts 179°
2026-04-12 09:15 48.99394 10.24535 6049 ft 119 kts 181°
2026-04-12 09:15 48.98566 10.24569 6046 ft 119 kts 181°
2026-04-12 09:16 48.97727 10.24606 6035 ft 120 kts 180°
2026-04-12 09:16 48.96892 10.24637 6040 ft 119 kts 181°
2026-04-12 09:16 48.96063 10.24674 6036 ft 119 kts 179°
2026-04-12 09:16 48.95250 10.24878 6041 ft 121 kts 153°
2026-04-12 09:17 48.94577 10.25639 6034 ft 122 kts 140°
2026-04-12 09:17 48.93941 10.26508 6047 ft 122 kts 138°
2026-04-12 09:17 48.93307 10.27394 6048 ft 123 kts 139°
2026-04-12 09:17 48.92676 10.28267 6036 ft 122 kts 138°
2026-04-12 09:18 48.92048 10.29147 6067 ft 122 kts 137°
2026-04-12 09:18 48.91416 10.30035 6064 ft 125 kts 137°
2026-04-12 09:18 48.90775 10.30938 6058 ft 124 kts 138°
2026-04-12 09:18 48.90142 10.31823 6050 ft 125 kts 135°
2026-04-12 09:19 48.89502 10.32726 6046 ft 123 kts 137°
2026-04-12 09:19 48.88877 10.33606 6041 ft 123 kts 135°
2026-04-12 09:19 48.88249 10.34490 6023 ft 122 kts 135°
2026-04-12 09:20 48.86997 10.36256 6040 ft 123 kts 138°
2026-04-12 09:20 48.86376 10.37133 6041 ft 123 kts 136°
2026-04-12 09:20 48.85128 10.38885 6031 ft 122 kts 137°
2026-04-12 09:21 48.84510 10.39752 6044 ft 121 kts 135°
2026-04-12 09:21 48.83891 10.40626 6042 ft 121 kts 139°
2026-04-12 09:21 48.83269 10.41497 6038 ft 121 kts 139°
2026-04-12 09:21 48.82669 10.42396 6040 ft 122 kts 134°
2026-04-12 09:22 48.82084 10.43332 6043 ft 122 kts 133°
2026-04-12 09:22 48.81500 10.44270 6021 ft 123 kts 131°
2026-04-12 09:22 48.80913 10.45211 6055 ft 123 kts 132°
2026-04-12 09:22 48.80324 10.46155 6035 ft 123 kts 134°
2026-04-12 09:23 48.79736 10.47093 6031 ft 121 kts 130°
2026-04-12 09:23 48.79161 10.48026 6039 ft 122 kts 131°
2026-04-12 09:23 48.78580 10.48954 6041 ft 122 kts 131°
2026-04-12 09:23 48.77988 10.49896 6045 ft 123 kts 131°
2026-04-12 09:24 48.77405 10.50837 6042 ft 123 kts 130°
2026-04-12 09:24 48.76807 10.51792 6037 ft 125 kts 130°
2026-04-12 09:24 48.76215 10.52742 6029 ft 124 kts 131°
2026-04-12 09:24 48.75616 10.53695 6027 ft 124 kts 131°
2026-04-12 09:25 48.75029 10.54637 6034 ft 124 kts 129°
2026-04-12 09:25 48.74441 10.55582 6028 ft 124 kts 132°
2026-04-12 09:25 48.73853 10.56523 6049 ft 123 kts 131°
2026-04-12 09:25 48.73249 10.57482 6044 ft 125 kts 130°
2026-04-12 09:26 48.72654 10.58435 6039 ft 124 kts 129°
2026-04-12 09:26 48.72062 10.59377 6032 ft 124 kts 131°
2026-04-12 09:26 48.71462 10.60328 6031 ft 124 kts 130°
2026-04-12 09:26 48.70876 10.61260 6031 ft 123 kts 130°
2026-04-12 09:27 48.70288 10.62196 6033 ft 123 kts 130°
2026-04-12 09:27 48.69694 10.63148 6042 ft 122 kts 129°
2026-04-12 09:27 48.69106 10.64083 6046 ft 123 kts 129°
2026-04-12 09:27 48.68515 10.65023 6033 ft 123 kts 130°
2026-04-12 09:28 48.67930 10.65959 6013 ft 121 kts 129°
2026-04-12 09:28 48.67353 10.66876 6048 ft 121 kts 133°
2026-04-12 09:28 48.66773 10.67799 6047 ft 122 kts 131°
2026-04-12 09:28 48.66187 10.68728 6034 ft 122 kts 130°
2026-04-12 09:29 48.65601 10.69658 6031 ft 121 kts 130°
2026-04-12 09:29 48.65023 10.70579 6038 ft 121 kts 130°
2026-04-12 09:29 48.64442 10.71502 6029 ft 121 kts 131°
2026-04-12 09:29 48.63856 10.72430 6033 ft 121 kts 131°
2026-04-12 09:30 48.63282 10.73342 6021 ft 121 kts 130°
2026-04-12 09:30 48.62700 10.74263 6031 ft 120 kts 131°
2026-04-12 09:30 48.62126 10.75174 6034 ft 121 kts 130°
2026-04-12 09:30 48.61540 10.76104 6020 ft 121 kts 130°
2026-04-12 09:31 48.60962 10.77020 6038 ft 121 kts 130°
2026-04-12 09:31 48.60387 10.77933 6032 ft 120 kts 131°
2026-04-12 09:31 48.59808 10.78847 6027 ft 120 kts 130°
2026-04-12 09:31 48.59233 10.79759 6045 ft 119 kts 130°
2026-04-12 09:32 48.58660 10.80670 6048 ft 119 kts 130°
2026-04-12 09:32 48.58087 10.81588 6040 ft 120 kts 130°
2026-04-12 09:32 48.57514 10.82504 6039 ft 120 kts 130°
2026-04-12 09:32 48.56947 10.83411 6043 ft 119 kts 130°
2026-04-12 09:33 48.56378 10.84323 6041 ft 120 kts 130°
2026-04-12 09:33 48.55804 10.85240 6039 ft 120 kts 130°
2026-04-12 09:33 48.55228 10.86162 6036 ft 119 kts 129°
2026-04-12 09:33 48.54660 10.87070 6038 ft 119 kts 129°
2026-04-12 09:34 48.54094 10.87976 6040 ft 119 kts 129°
2026-04-12 09:34 48.53520 10.88891 6037 ft 120 kts 131°
2026-04-12 09:34 48.52947 10.89810 6032 ft 119 kts 129°
2026-04-12 09:34 48.52377 10.90719 6022 ft 119 kts 130°
2026-04-12 09:35 48.51813 10.91624 6026 ft 120 kts 129°
2026-04-12 09:35 48.51241 10.92534 6031 ft 119 kts 130°
2026-04-12 09:35 48.50670 10.93441 6031 ft 119 kts 131°
2026-04-12 09:35 48.50100 10.94337 6034 ft 119 kts 130°
2026-04-12 09:36 48.49527 10.95240 6036 ft 119 kts 130°
2026-04-12 09:36 48.48941 10.96152 6035 ft 120 kts 130°
2026-04-12 09:36 48.48369 10.97044 6033 ft 120 kts 130°
2026-04-12 09:36 48.47787 10.97950 6032 ft 120 kts 130°
2026-04-12 09:37 48.47204 10.98859 6032 ft 120 kts 130°
2026-04-12 09:37 48.46625 10.99765 6025 ft 120 kts 131°
2026-04-12 09:37 48.46052 11.00661 6017 ft 119 kts 131°
2026-04-12 09:37 48.45481 11.01554 6019 ft 118 kts 130°
2026-04-12 09:38 48.44914 11.02447 6025 ft 119 kts 131°
2026-04-12 09:38 48.44337 11.03331 6030 ft 117 kts 129°
2026-04-12 09:38 48.43774 11.04208 6032 ft 118 kts 130°
2026-04-12 09:38 48.43201 11.05105 6035 ft 117 kts 130°
2026-04-12 09:39 48.42632 11.05992 6024 ft 118 kts 131°
2026-04-12 09:39 48.42064 11.06874 6023 ft 116 kts 133°
2026-04-12 09:39 48.41504 11.07755 6026 ft 116 kts 131°
2026-04-12 09:39 48.40938 11.08634 6037 ft 116 kts 130°
2026-04-12 09:40 48.40373 11.09512 6019 ft 117 kts 129°
2026-04-12 09:40 48.39805 11.10393 6031 ft 118 kts 130°
2026-04-12 09:40 48.39229 11.11288 6027 ft 119 kts 129°
2026-04-12 09:40 48.38655 11.12180 6025 ft 119 kts 129°
2026-04-12 09:41 48.38084 11.13064 6028 ft 119 kts 130°
2026-04-12 09:41 48.37510 11.13958 6026 ft 119 kts 130°
2026-04-12 09:41 48.36931 11.14855 6028 ft 118 kts 130°
2026-04-12 09:41 48.36359 11.15744 6024 ft 119 kts 130°
2026-04-12 09:42 48.35788 11.16632 6030 ft 119 kts 130°
2026-04-12 09:42 48.35210 11.17526 6029 ft 118 kts 130°
2026-04-12 09:42 48.34633 11.18421 6027 ft 118 kts 130°
2026-04-12 09:43 48.32916 11.21082 6033 ft 119 kts 129°
2026-04-12 09:43 48.32338 11.21970 6022 ft 120 kts 129°
2026-04-12 09:43 48.31760 11.22868 6029 ft 120 kts 129°
2026-04-12 09:44 48.31178 11.23772 6023 ft 120 kts 129°
2026-04-12 09:44 48.30594 11.24673 6011 ft 120 kts 129°
2026-04-12 09:44 48.30008 11.25578 6014 ft 119 kts 130°
2026-04-12 09:44 48.29437 11.26461 6017 ft 118 kts 131°
2026-04-12 09:45 48.28869 11.27346 6027 ft 118 kts 129°
2026-04-12 09:45 48.28288 11.28237 6036 ft 118 kts 130°
2026-04-12 09:45 48.27717 11.29120 6028 ft 119 kts 130°
2026-04-12 09:45 48.27140 11.30010 6027 ft 119 kts 130°
2026-04-12 09:46 48.26516 11.30831 6012 ft 122 kts 149°
2026-04-12 09:46 48.25688 11.31048 6020 ft 122 kts 178°
2026-04-12 09:46 48.24842 11.30969 6027 ft 122 kts 182°
2026-04-12 09:46 48.23989 11.30846 6026 ft 122 kts 184°
2026-04-12 09:47 48.23139 11.30715 6025 ft 122 kts 184°
2026-04-12 09:47 48.22290 11.30581 6028 ft 122 kts 184°
2026-04-12 09:47 48.21446 11.30448 6027 ft 122 kts 184°
2026-04-12 09:47 48.20603 11.30315 6027 ft 123 kts 184°
2026-04-12 09:48 48.19752 11.30180 6030 ft 122 kts 184°
2026-04-12 09:48 48.18906 11.30045 6029 ft 123 kts 184°
2026-04-12 09:48 48.18054 11.29910 6026 ft 123 kts 183°
2026-04-12 09:48 48.17208 11.29776 6025 ft 122 kts 184°
2026-04-12 09:49 48.16359 11.29641 6024 ft 122 kts 183°
2026-04-12 09:49 48.15518 11.29510 6020 ft 121 kts 184°
2026-04-12 09:49 48.14684 11.29378 6024 ft 120 kts 182°
2026-04-12 09:49 48.13851 11.29246 6018 ft 120 kts 184°
2026-04-12 09:50 48.13029 11.29117 6041 ft 119 kts 184°
2026-04-12 09:50 48.12194 11.28984 6043 ft 121 kts 183°
2026-04-12 09:50 48.11357 11.28854 6036 ft 121 kts 183°
2026-04-12 09:50 48.10511 11.28718 6037 ft 121 kts 184°
2026-04-12 09:51 48.09668 11.28583 6039 ft 121 kts 183°
2026-04-12 09:51 48.08831 11.28451 6040 ft 122 kts 183°
2026-04-12 09:51 48.07994 11.28324 6041 ft 121 kts 182°
2026-04-12 09:51 48.07150 11.28212 6041 ft 121 kts 182°
2026-04-12 09:52 48.06310 11.28101 6041 ft 121 kts 182°
2026-04-12 09:52 48.05459 11.27990 6041 ft 121 kts 182°
2026-04-12 09:52 48.04623 11.27883 6038 ft 122 kts 182°
2026-04-12 09:52 48.03780 11.27774 6038 ft 122 kts 182°
2026-04-12 09:53 48.02924 11.27661 6039 ft 122 kts 182°
2026-04-12 09:53 48.02091 11.27692 6036 ft 120 kts 157°
2026-04-12 09:53 48.01500 11.28493 6040 ft 116 kts 111°
2026-04-12 09:53 48.01488 11.29659 5975 ft 116 kts 65°
2026-04-12 09:54 48.02054 11.30470 5831 ft 117 kts 21°
2026-04-12 09:54 48.02858 11.30705 5686 ft 118 kts
2026-04-12 09:54 48.03686 11.30794 5536 ft 119 kts
2026-04-12 09:54 48.04501 11.30842 5388 ft 118 kts
2026-04-12 09:55 48.05327 11.30872 5238 ft 118 kts
2026-04-12 09:55 48.06149 11.30892 5089 ft 118 kts
2026-04-12 09:55 48.06963 11.30907 5015 ft 114 kts
2026-04-12 09:55 48.07750 11.30915 5008 ft 113 kts 360°
2026-04-12 09:56 48.08543 11.30922 5007 ft 113 kts
2026-04-12 09:56 48.09320 11.30930 5003 ft 113 kts 360°
2026-04-12 09:56 48.10114 11.30940 5001 ft 112 kts 360°
2026-04-12 09:56 48.10893 11.30950 4998 ft 112 kts 359°
2026-04-12 09:57 48.11669 11.30960 4995 ft 112 kts
2026-04-12 09:57 48.12454 11.30969 4990 ft 111 kts 358°
2026-04-12 09:57 48.13231 11.30978 5001 ft 112 kts 359°
2026-04-12 09:57 48.14008 11.30991 4993 ft 111 kts 360°
2026-04-12 09:58 48.14781 11.30997 5006 ft 112 kts 359°
2026-04-12 09:58 48.15565 11.31007 5001 ft 113 kts 360°
2026-04-12 09:58 48.16362 11.31020 4998 ft 113 kts 360°
2026-04-12 09:58 48.17146 11.31031 4992 ft 112 kts 360°
2026-04-12 09:59 48.17920 11.31042 4992 ft 112 kts 360°
2026-04-12 09:59 48.18707 11.31052 4990 ft 112 kts 360°
2026-04-12 09:59 48.19484 11.31062 4997 ft 112 kts
2026-04-12 09:59 48.20264 11.31073 4996 ft 112 kts 360°
2026-04-12 10:00 48.21045 11.31083 4999 ft 112 kts 360°
2026-04-12 10:00 48.21823 11.31094 4990 ft 112 kts 359°
2026-04-12 10:00 48.22604 11.31103 5002 ft 112 kts 360°
2026-04-12 10:00 48.23381 11.31114 4999 ft 112 kts
2026-04-12 10:01 48.24152 11.31123 4994 ft 112 kts 360°
2026-04-12 10:01 48.24932 11.31157 4998 ft 112 kts
2026-04-12 10:01 48.25577 11.31791 4981 ft 114 kts 52°
2026-04-12 10:01 48.25765 11.32945 4983 ft 119 kts 90°
2026-04-12 10:02 48.25563 11.34162 4978 ft 121 kts 102°
2026-04-12 10:02 48.25288 11.35341 4997 ft 120 kts 104°
2026-04-12 10:02 48.24990 11.36555 4853 ft 125 kts 105°
2026-04-12 10:02 48.24677 11.37770 4689 ft 127 kts 105°
2026-04-12 10:03 48.24358 11.39017 4528 ft 128 kts 106°
2026-04-12 10:03 48.24041 11.40254 4369 ft 129 kts 105°
2026-04-12 10:03 48.23718 11.41508 4223 ft 129 kts 103°
2026-04-12 10:03 48.23332 11.42737 4056 ft 133 kts 117°
2026-04-12 10:04 48.22712 11.43788 4007 ft 134 kts 134°
2026-04-12 10:04 48.21920 11.44499 3962 ft 134 kts 157°
2026-04-12 10:04 48.21007 11.44523 4006 ft 131 kts 188°
2026-04-12 10:04 48.20150 11.44093 3983 ft 131 kts 206°
2026-04-12 10:05 48.19371 11.43402 4002 ft 128 kts 217°
2026-04-12 10:05 48.18666 11.42617 3992 ft 127 kts 220°
2026-04-12 10:05 48.17990 11.41771 3991 ft 126 kts 223°
2026-04-12 10:05 48.17327 11.40902 4003 ft 127 kts 223°
2026-04-12 10:06 48.16663 11.40019 3993 ft 127 kts 225°
2026-04-12 10:06 48.16016 11.39112 3879 ft 131 kts 225°
2026-04-12 10:06 48.15343 11.38173 3686 ft 132 kts 226°
2026-04-12 10:06 48.14683 11.37261 3536 ft 120 kts 225°
2026-04-12 10:07 48.14088 11.36455 3434 ft 119 kts 225°
2026-04-12 10:07 48.13485 11.35627 3217 ft 118 kts 225°
2026-04-12 10:07 48.12888 11.34805 3028 ft 114 kts 226°
2026-04-12 10:07 48.12315 11.34013 2853 ft 111 kts 225°
2026-04-12 10:08 48.11750 11.33249 2692 ft 108 kts 224°
2026-04-12 10:08 48.11203 11.32498 2553 ft 107 kts 224°
2026-04-12 10:08 48.10659 11.31751 2406 ft 104 kts 225°
2026-04-12 10:08 48.10143 11.31043 2269 ft 101 kts 224°
2026-04-12 10:09 48.09618 11.30328 2134 ft 102 kts 223°
2026-04-12 10:09 48.09096 11.29623 1978 ft 100 kts 223°
2026-04-12 10:09 48.08619 11.28962 1901 ft 83 kts 223°
2026-04-12 10:09 48.08263 11.28480 1909 ft 44 kts 222°
2026-04-12 10:10 48.08151 11.28298 1912 ft 14 kts 267°
2026-04-12 10:10 48.08195 11.28198 1909 ft 11 kts 313°
2026-04-12 10:10 48.08236 11.28133 1908 ft 0 kts 312°
2026-04-12 10:12 48.08270 11.28077 1907 ft 11 kts 312°
2026-04-12 10:13 48.08327 11.28080 1906 ft 9 kts 44°
2026-04-12 10:13 48.08327 11.28141 1906 ft 0 kts 121°